| time (UTC) | temp F | wind direction | speed knots | gust knots | rain 1hr in | rain 24hr in | rain mn in | humidity % | barometer mb |
| 20260905144550 | 75 | 348 | 1.7 | 6.1 | 0.00 | 0.00 | 0.00 | 77 | 1014.3 |
| 20260905143052 | 74 | 5 | 4.3 | 7.8 | 0.00 | 0.00 | 0.00 | 78 | 1014.3 |
| 20260905141556 | 73 | 20 | 3.5 | 7.0 | 0.00 | 0.00 | 0.00 | 80 | 1014.2 |
| 20260905140057 | 72 | 19 | 4.3 | 10.4 | 0.00 | 0.00 | 0.00 | 80 | 1014.1 |
| 20260905134550 | 72 | 351 | 2.6 | 7.8 | 0.00 | 0.00 | 0.00 | 83 | 1014.0 |
| 20260905133058 | 71 | 350 | 5.2 | 10.4 | 0.00 | 0.00 | 0.00 | 81 | 1014.1 |
| 20260905131556 | 72 | 50 | 7.8 | 12.2 | 0.00 | 0.00 | 0.00 | 80 | 1014.2 |
| 20260905130057 | 73 | 28 | 2.6 | 8.7 | 0.00 | 0.00 | 0.00 | 80 | 1014.2 |
| 20260905124559 | 72 | 349 | 3.5 | 7.0 | 0.00 | 0.00 | 0.00 | 81 | 1014.1 |
| 20260905123051 | 71 | 11 | 3.5 | 8.7 | 0.00 | 0.00 | 0.00 | 83 | 1014.1 |
| 20260905121557 | 70 | 355 | 2.6 | 9.6 | 0.00 | 0.00 | 0.00 | 84 | 1013.9 |
| 20260905120057 | 69 | 0 | 2.6 | 8.7 | 0.00 | 0.00 | 0.00 | 85 | 1013.9 |
| 20260905114604 | 68 | 349 | 2.6 | 8.7 | 0.00 | 0.00 | 0.00 | 87 | 1013.8 |
| 20260905113051 | 67 | 360 | 6.1 | 9.6 | 0.00 | 0.00 | 0.00 | 86 | 1013.7 |
| 20260905111619 | 67 | 13 | 4.3 | 8.7 | 0.00 | 0.00 | 0.00 | 86 | 1013.5 |
| 20260905110107 | 67 | 0 | 2.6 | 9.6 | 0.00 | 0.00 | 0.00 | 85 | 1013.5 |
| 20260905104616 | 67 | 24 | 4.3 | 10.4 | 0.00 | 0.00 | 0.00 | 85 | 1013.3 |
| 20260905103051 | 67 | 39 | 7.8 | 11.3 | 0.00 | 0.00 | 0.00 | 85 | 1013.0 |
| 20260905101600 | 68 | 355 | 3.5 | 10.4 | 0.00 | 0.00 | 0.00 | 85 | 1013.0 |
| 20260905100059 | 68 | 29 | 6.1 | 10.4 | 0.00 | 0.00 | 0.00 | 84 | 1012.9 |
| 20260905094702 | 67 | 65 | 6.1 | 10.4 | 0.00 | 0.00 | 0.00 | 84 | 1012.9 |
| 20260905093059 | 67 | 24 | 5.2 | 9.6 | 0.00 | 0.00 | 0.00 | 85 | 1012.7 |
| 20260905091602 | 67 | 348 | 2.6 | 8.7 | 0.00 | 0.00 | 0.00 | 85 | 1012.6 |
| 20260905090059 | 67 | 336 | 4.3 | 7.8 | 0.00 | 0.00 | 0.00 | 85 | 1012.7 |
| 20260905084605 | 68 | 344 | 3.5 | 7.8 | 0.00 | 0.00 | 0.00 | 84 | 1012.6 |
| 20260905083052 | 68 | 24 | 2.6 | 8.7 | 0.00 | 0.00 | 0.00 | 83 | 1012.6 |
| 20260905081554 | 68 | 344 | 2.6 | 8.7 | 0.00 | 0.00 | 0.00 | 82 | 1012.8 |
| 20260905074602 | 68 | 344 | 4.3 | 9.6 | 0.00 | 0.00 | 0.00 | 81 | 1013.1 |
| 20260905073105 | 69 | 10 | 3.5 | 8.7 | 0.00 | 0.00 | 0.00 | 81 | 1013.0 |
| 20260905071551 | 69 | 24 | 4.3 | 8.7 | 0.00 | 0.00 | 0.00 | 81 | 1013.0 |
| 20260905070051 | 69 | 12 | 4.3 | 9.6 | 0.00 | 0.00 | 0.00 | 81 | 1013.1 |
| 20260905064558 | 69 | 76 | 4.3 | 9.6 | 0.00 | 0.00 | 0.00 | 82 | 1013.2 |
| 20260905063053 | 69 | 5 | 4.3 | 7.8 | 0.00 | 0.00 | 0.00 | 81 | 1013.3 |
| 20260905061600 | 69 | 28 | 5.2 | 9.6 | 0.00 | 0.00 | 0.00 | 79 | 1013.3 |
| 20260905060105 | 69 | 17 | 5.2 | 8.7 | 0.00 | 0.00 | 0.00 | 79 | 1013.3 |
| 20260905054601 | 69 | 17 | 7.0 | 11.3 | 0.00 | 0.00 | 0.00 | 78 | 1013.3 |
| 20260905053057 | 69 | 57 | 7.8 | 12.2 | 0.00 | 0.00 | 0.00 | 80 | 1013.4 |
| 20260905051607 | 70 | 26 | 7.8 | 13.0 | 0.00 | 0.00 | 0.00 | 80 | 1013.3 |
| 20260905050051 | 70 | 83 | 9.6 | 13.9 | 0.00 | 0.00 | 0.00 | 80 | 1013.4 |
| 20260905044600 | 70 | 22 | 9.6 | 14.8 | 0.00 | 0.00 | 0.00 | 81 | 1013.4 |
| 20260905043056 | 70 | 28 | 7.8 | 12.2 | 0.00 | 0.00 | 0.00 | 84 | 1013.5 |
| 20260905041600 | 70 | 14 | 7.0 | 10.4 | 0.00 | 0.00 | 0.00 | 86 | 1013.3 |
| 20260905040110 | 70 | 346 | 3.5 | 10.4 | 0.00 | 0.00 | 0.00 | 86 | 1013.3 |
| 20260905034558 | 70 | 19 | 4.3 | 8.7 | 0.00 | 0.00 | 0.00 | 87 | 1013.4 |
| 20260905033107 | 70 | 336 | 4.3 | 7.8 | 0.00 | 0.00 | 0.00 | 90 | 1013.2 |
| 20260905031608 | 70 | 350 | 4.3 | 8.7 | 0.00 | 0.00 | 0.00 | 89 | 1013.2 |
| 20260905030109 | 70 | 337 | 4.3 | 7.8 | 0.00 | 0.00 | 0.00 | 89 | 1013.1 |
| 20260905024603 | 70 | 342 | 4.3 | 7.8 | 0.00 | 0.00 | 0.00 | 88 | 1013.1 |
| 20260905023101 | 70 | 339 | 2.6 | 7.8 | 0.00 | 0.00 | 0.00 | 87 | 1013.2 |
| 20260905021611 | 70 | 348 | 2.6 | 7.0 | 0.00 | 0.00 | 0.00 | 87 | 1013.4 |
| 20260905020058 | 71 | 351 | 2.6 | 7.8 | 0.00 | 0.00 | 0.00 | 87 | 1013.4 |
| 20260905014556 | 71 | 340 | 1.7 | 8.7 | 0.00 | 0.00 | 0.00 | 87 | 1013.6 |
| 20260905013121 | 71 | 314 | 2.6 | 7.8 | 0.00 | 0.00 | 0.00 | 86 | 1013.4 |
| 20260905011548 | 71 | 340 | 2.6 | 8.7 | 0.00 | 0.00 | 0.00 | 87 | 1013.4 |
| 20260905004554 | 71 | 338 | 2.6 | 7.8 | 0.00 | 0.00 | 0.00 | 86 | 1013.3 |
| 20260905003051 | 71 | 330 | 2.6 | 7.8 | 0.00 | 0.00 | 0.00 | 86 | 1013.3 |
| 20260905001546 | 71 | 329 | 2.6 | 7.0 | 0.00 | 0.00 | 0.00 | 86 | 1013.2 |
| 20260905000048 | 71 | 306 | 0.9 | 5.2 | 0.00 | 0.00 | 0.00 | 86 | 1013.1 |
| 20260904234555 | 72 | 338 | 1.7 | 6.1 | 0.00 | 0.00 | 0.00 | 84 | 1012.9 |
| 20260904233056 | 72 | 345 | 1.7 | 4.3 | 0.00 | 0.00 | 0.00 | 84 | 1012.9 |
| 20260904231557 | 72 | 318 | 2.6 | 5.2 | 0.00 | 0.00 | 0.00 | 82 | 1012.9 |
| 20260904230109 | 73 | 323 | 1.7 | 4.3 | 0.00 | 0.00 | 0.00 | 82 | 1012.7 |
| 20260904224605 | 73 | 344 | 1.7 | 4.3 | 0.00 | 0.00 | 0.00 | 81 | 1012.5 |
| 20260904223106 | 73 | 317 | 2.6 | 6.1 | 0.00 | 0.00 | 0.00 | 81 | 1012.5 |
| 20260904221558 | 73 | 342 | 1.7 | 5.2 | 0.00 | 0.00 | 0.00 | 80 | 1012.5 |
| 20260904220059 | 74 | 334 | 2.6 | 7.8 | 0.00 | 0.00 | 0.00 | 79 | 1012.6 |
| 20260904214556 | 75 | 319 | 1.7 | 4.3 | 0.00 | 0.00 | 0.00 | 77 | 1012.6 |
| 20260904213052 | 77 | 321 | 3.5 | 5.2 | 0.00 | 0.00 | 0.00 | 76 | 1012.7 |
| 20260904211547 | 77 | 335 | 2.6 | 7.0 | 0.00 | 0.00 | 0.00 | 75 | 1012.9 |
| 20260904210057 | 78 | 323 | 2.6 | 7.0 | 0.00 | 0.00 | 0.00 | 75 | 1012.9 |
| 20260904204548 | 78 | 323 | 2.6 | 7.8 | 0.00 | 0.00 | 0.00 | 74 | 1013.1 |
| 20260904203059 | 78 | 331 | 2.6 | 7.0 | 0.00 | 0.00 | 0.00 | 74 | 1013.1 |
| 20260904201621 | 78 | 331 | 2.6 | 6.1 | 0.00 | 0.00 | 0.00 | 74 | 1013.2 |
| 20260904200115 | 79 | 346 | 3.5 | 7.8 | 0.00 | 0.00 | 0.00 | 73 | 1013.5 |
| 20260904194553 | 80 | 324 | 2.6 | 7.8 | 0.00 | 0.00 | 0.00 | 73 | 1013.7 |
| 20260904193048 | 80 | 355 | 2.6 | 7.0 | 0.00 | 0.00 | 0.00 | 71 | 1013.8 |
| 20260904191556 | 81 | 326 | 2.6 | 5.2 | 0.00 | 0.00 | 0.00 | 72 | 1014.0 |
| 20260904190050 | 80 | 330 | 1.7 | 5.2 | 0.00 | 0.00 | 0.00 | 74 | 1014.1 |
| 20260904184547 | 79 | 341 | 2.6 | 7.0 | 0.00 | 0.00 | 0.00 | 74 | 1014.2 |
| 20260904183057 | 79 | 292 | 2.6 | 6.1 | 0.00 | 0.00 | 0.00 | 73 | 1014.2 |
| 20260904181554 | 79 | 319 | 3.5 | 7.0 | 0.00 | 0.00 | 0.00 | 72 | 1014.2 |
| 20260904180046 | 79 | 331 | 2.6 | 7.0 | 0.00 | 0.00 | 0.00 | 74 | 1014.3 |
| 20260904174555 | 79 | 329 | 2.6 | 5.2 | 0.00 | 0.00 | 0.00 | 73 | 1014.4 |
| 20260904173053 | 79 | 331 | 2.6 | 7.0 | 0.00 | 0.00 | 0.00 | 74 | 1014.6 |
| 20260904171613 | 79 | 298 | 3.5 | 6.1 | 0.00 | 0.00 | 0.00 | 73 | 1014.6 |
| 20260904170057 | 79 | 321 | 1.7 | 4.3 | 0.00 | 0.00 | 0.00 | 73 | 1014.6 |
| 20260904164600 | 79 | 317 | 0.9 | 6.1 | 0.00 | 0.00 | 0.00 | 75 | 1014.7 |
| 20260904163057 | 79 | 20 | 1.7 | 5.2 | 0.00 | 0.00 | 0.00 | 73 | 1014.9 |
| 20260904161557 | 80 | 330 | 0.9 | 3.5 | 0.00 | 0.00 | 0.00 | 72 | 1014.9 |
| 20260904160053 | 80 | 338 | 1.7 | 4.3 | 0.00 | 0.00 | 0.00 | 72 | 1014.9 |